Alexandria, LA

8:43 PM CDT on July 23, 2016 (GMT -0500)
Alexandria International

Weather History for KAEX - December, 2006

Change the Weather History Date:

Wednesday, December 27, 2006

  Actual Average Record
Temperature  
Mean Temperature 44 °F 49 °F  
Max Temperature 57 °F 59 °F 80 °F (2015)
Min Temperature 30 °F 40 °F 16 °F (1892)
Degree Days  
Heating Degree Days 21 16  
Month to date heating degree days 384 401  
Since 1 July heating degree days 679 726  
Moisture  
Dew Point 31 °F    
Average Humidity 69    
Maximum Humidity 92    
Minimum Humidity 36    
Precipitation  
Precipitation 0.00 in 0.16 in 4.63 in (1942)
Month to date precipitation 5.22 5.59  
Year to date precipitation 52.07 55.39  
Snow  
Snow 0.00 in - 0.00 in ()
Month to date snowfall 0.0  
Since 1 July snowfall 0.0  
Snow Depth 0.00 in    
Sea Level Pressure  
Sea Level Pressure 30.19 in    
Wind  
Wind Speed 3 mph (SSE)    
Max Wind Speed 15 mph    
Max Gust Speed -    
Visibility 10 miles    
Events      
T = Trace of Precipitation, MM = Missing Value Source: NWS Daily Summary

Daily Weather History Graph

Daily Weather History Graph

Search for Another Location

Airport or City:

Trip Planner

Search our weather history database for the weather conditions in past years. The results will help you decide how hot, cold, wet, or windy it might be!

Date:

Astronomy

Dec. 27, 2006 Rise Set
Actual Time 7:07 AM CST 5:15 PM CST
Civil Twilight 6:40 AM CST 5:41 PM CST
Nautical Twilight 6:10 AM CST 6:12 PM CST
Astronomical Twilight 5:41 AM CST 6:41 PM CST
Moon 12:01 PM CST (12/27) No Moon Set
Length of Visible Light 11h 00m
Length of Day
10h 07m
First Quarter, 52% of the Moon is Illuminated
Dec 27
First Quarter
Jan 3
Full
Jan 11
Last Quarter
Jan 18
New
Jan 25
First Quarter

Hourly Weather History & Observations

Time (CST) Temp. Windchill Dew Point Humidity Pressure Visibility Wind Dir Wind Speed Gust Speed Precip Events Conditions
12:53 AM 33.1 °F - 30.0 °F 89% 30.22 in 10.0 mi Calm Calm - N/A   Clear
1:53 AM 33.1 °F - 30.0 °F 89% 30.22 in 10.0 mi Calm Calm - N/A   Clear
2:53 AM 32.0 °F - 30.0 °F 92% 30.23 in 10.0 mi Calm Calm - N/A   Clear
3:53 AM 30.9 °F - 28.9 °F 92% 30.22 in 9.0 mi Calm Calm - N/A   Clear
4:53 AM 30.9 °F - 28.0 °F 89% 30.22 in 10.0 mi Calm Calm - N/A   Clear
5:53 AM 30.9 °F - 28.0 °F 89% 30.23 in 10.0 mi Calm Calm - N/A   Clear
6:53 AM 30.0 °F - 27.0 °F 88% 30.25 in 10.0 mi Calm Calm - N/A   Clear
7:53 AM 30.9 °F 26.2 °F 28.9 °F 92% 30.26 in 10.0 mi SE 4.6 mph - N/A   Clear
8:53 AM 39.0 °F 35.7 °F 34.0 °F 82% 30.26 in 10.0 mi SE 4.6 mph - N/A   Clear
9:53 AM 46.0 °F 41.9 °F 35.1 °F 66% 30.26 in 10.0 mi SSE 8.1 mph - N/A   Clear
10:53 AM 50.0 °F - 33.1 °F 52% 30.25 in 10.0 mi SSE 8.1 mph - N/A   Clear
11:53 AM 53.1 °F - 28.9 °F 40% 30.21 in 10.0 mi SE 15.0 mph - N/A   Clear
12:53 PM 55.0 °F - 32.0 °F 42% 30.17 in 10.0 mi SSE 10.4 mph - N/A   Clear
1:53 PM 55.9 °F - 28.9 °F 36% 30.16 in 10.0 mi SSE 9.2 mph - N/A   Clear
2:53 PM 55.9 °F - 30.0 °F 37% 30.14 in 10.0 mi SSW 10.4 mph - N/A   Clear
3:53 PM 55.9 °F - 30.0 °F 37% 30.13 in 10.0 mi SSE 6.9 mph - N/A   Clear
4:53 PM 51.1 °F - 35.1 °F 54% 30.13 in 10.0 mi SSE 8.1 mph - N/A   Clear
5:53 PM 46.0 °F 42.5 °F 34.0 °F 63% 30.14 in 10.0 mi SSE 6.9 mph - N/A   Clear
6:53 PM 45.0 °F 42.6 °F 34.0 °F 65% 30.14 in 10.0 mi SSE 4.6 mph - N/A   Clear
7:53 PM 44.1 °F 41.5 °F 33.1 °F 65% 30.14 in 10.0 mi SSE 4.6 mph - N/A   Clear
8:53 PM 43.0 °F 40.3 °F 33.1 °F 68% 30.15 in 10.0 mi SE 4.6 mph - N/A   Clear
9:53 PM 41.0 °F 36.4 °F 33.1 °F 73% 30.14 in 10.0 mi SE 6.9 mph - N/A   Clear
10:53 PM 39.0 °F - 32.0 °F 76% 30.14 in 8.0 mi North - - N/A   Clear
11:53 PM 37.0 °F 33.3 °F 32.0 °F 82% 30.13 in 6.0 mi South 4.6 mph - N/A   Haze